DW9005 Weather Reports


time (UTC)temp
C
wind
direction
speed
KPH
gust
KPH
rain 1hr
cm
rain 24hr
cm
rain mn
cm
humidity
%
barometer
mb
20260906113045 23 0.0 0.0 0.05 0.05 0.05 94 1011.8
20260906111515 24 0.0 0.0 0.03 0.03 0.03 92 1011.7
20260906110012 25 0.0 0.0 0.00 0.00 0.00 89 1011.7
20260906104553 25 0.0 0.0 0.00 0.00 0.00 87 1011.8
20260906103054 25 0.0 0.0 0.00 0.00 0.00 86 1011.7
20260906101536 25 0.0 0.0 0.00 0.00 0.00 86 1012.0
20260906100035 25 0.0 0.0 0.00 0.00 0.00 85 1012.3
20260906094523 25 0.0 0.0 0.00 0.00 0.00 87 1012.3
20260906093021 25 0.0 0.0 0.00 0.00 0.00 89 1012.0
20260906091530 25 0.0 0.0 0.00 0.00 0.00 90 1011.6
20260906090017 25 0.0 0.0 0.00 0.00 0.00 89 1011.3
20260906084515 25 0.0 0.0 0.00 0.00 0.00 89 1011.4
20260906083015 25 0.0 0.0 0.00 0.00 0.00 89 1011.3
20260906081513 25 0.0 0.0 0.00 0.00 0.00 89 1011.2
20260906080010 26 0.0 0.0 0.00 0.00 0.00 90 1011.4
20260906074609 26 0.0 0.0 0.00 0.00 0.00 92 1011.6
20260906073051 26 0.0 0.0 0.00 0.00 0.00 92 1011.5
20260906071530 26 0.0 0.0 0.00 0.00 0.00 92 1011.5
20260906070029 26 0.0 0.0 0.00 0.00 0.00 91 1011.4
20260906064511 26 0.0 0.0 0.00 0.00 0.00 91 1011.5
20260906063011 26 0.0 0.0 0.00 0.00 0.00 91 1011.4
20260906061557 26 0.0 0.0 0.00 0.00 0.00 91 1011.4
20260906060052 26 0.0 0.0 0.00 0.00 0.00 91 1011.7
20260906054540 26 0.0 0.0 0.00 0.00 0.00 90 1011.9
20260906053039 26 0.0 0.0 0.00 0.00 0.00 90 1011.7
20260906051547 26 0.0 0.0 0.00 0.00 0.00 90 1012.1
20260906050046 27 0.0 0.0 0.00 0.00 0.00 90 1012.1
20260906044539 27 0.0 0.0 0.00 0.00 0.00 89 1012.2
20260906043038 27 0.0 0.0 0.00 0.00 0.00 88 1012.2
20260906041541 27 0.0 0.0 0.00 0.00 0.00 88 1012.0
20260906040042 27 0.0 0.0 0.00 0.00 0.00 87 1012.4
20260906034518 27 0.0 0.0 0.00 0.00 0.00 86 1012.3
20260906033034 27 0.0 0.0 0.00 0.00 0.00 87 1012.3
20260906031606 27 0.0 0.0 0.00 0.00 0.00 87 1012.6
20260906030101 27 0.0 0.0 0.00 0.00 0.00 86 1012.3
20260906024543 27 0.0 0.0 0.00 0.00 0.00 85 1012.0
20260906023043 28 0.0 0.0 0.00 0.00 0.00 84 1011.9
20260906021525 28 0.0 0.0 0.00 0.00 0.00 83 1011.8
20260906020025 28 0.0 0.0 0.00 0.00 0.00 82 1011.8
20260906014506 29 0.0 0.0 0.00 0.00 0.00 81 1011.5
20260906013012 30 0.0 0.0 0.00 0.00 0.00 79 1011.2
20260906011550 30 0.0 0.0 0.00 0.00 0.00 78 1010.8
20260906010048 30 0.0 0.0 0.00 0.00 0.00 77 1010.4
20260906004531 31 0.0 0.0 0.00 0.00 0.00 76 1010.2
20260906003030 31 0.0 0.0 0.00 0.00 0.00 73 1010.3
20260906001512 32 0.0 0.0 0.00 0.00 0.00 70 1010.3
20260906000014 32 0.0 0.0 0.00 0.00 0.00 66 1010.2
20260905234556 33 0.0 0.0 0.00 0.00 0.00 64 1010.3
20260905233053 34 0.0 0.0 0.00 0.00 0.00 62 1010.0
20260905231543 35 0.0 0.0 0.00 0.00 0.00 55 1010.1
20260905230049 35 0.0 0.0 0.00 0.00 0.00 55 1010.1
20260905224559 35 0.0 0.0 0.00 0.00 0.00 55 1010.0
20260905223042 34 0.0 0.0 0.00 0.00 0.00 56 1010.0
20260905221555 35 0.0 0.0 0.00 0.00 0.00 54 1009.9
20260905220042 34 0.0 0.0 0.00 0.00 0.00 56 1010.0
20260905214539 35 0.0 0.0 0.00 0.00 0.00 53 1010.0
20260905213038 36 0.0 0.0 0.00 0.00 0.00 51 1010.1
20260905211519 36 0.0 0.0 0.00 0.00 0.00 50 1010.2
20260905210018 36 0.0 0.0 0.00 0.00 0.00 50 1010.3
20260905204606 36 0.0 0.0 0.00 0.00 0.00 50 1010.4
20260905203117 36 0.0 0.0 0.00 0.00 0.00 50 1010.5
20260905201544 36 0.0 0.0 0.00 0.00 0.00 50 1010.5
20260905200050 36 0.0 0.0 0.00 0.00 0.00 52 1010.7
20260905194519 35 0.0 0.0 0.00 0.00 0.00 52 1010.8
20260905193017 35 0.0 0.0 0.00 0.00 0.00 52 1011.2
20260905191558 35 0.0 0.0 0.00 0.00 0.00 53 1011.3
20260905190056 35 0.0 0.0 0.00 0.00 0.00 54 1011.5
20260905184536 35 0.0 0.0 0.00 0.00 0.00 56 1011.9
20260905183034 35 0.0 0.0 0.00 0.00 0.00 56 1012.1
20260905181516 35 0.0 0.0 0.00 0.00 0.00 57 1012.3
20260905180013 34 0.0 0.0 0.00 0.00 0.00 59 1012.6
20260905174555 33 0.0 0.0 0.00 0.00 0.00 62 1012.8
20260905173056 34 0.0 0.0 0.00 0.00 0.00 58 1013.0
20260905171542 34 0.0 0.0 0.00 0.00 0.00 60 1013.2
20260905170036 34 0.0 0.0 0.00 0.00 0.00 59 1013.5
20260905164517 33 0.0 0.0 0.00 0.00 0.00 64 1013.6
20260905163016 34 0.0 0.0 0.00 0.00 0.00 60 1013.7
20260905161556 33 0.0 0.0 0.00 0.00 0.00 62 1013.8
20260905160120 33 0.0 0.0 0.00 0.00 0.00 65 1013.8
20260905154532 32 0.0 0.0 0.00 0.00 0.00 69 1013.7
20260905153031 32 0.0 0.0 0.00 0.00 0.00 72 1013.8
20260905151510 31 0.0 0.0 0.00 0.00 0.00 71 1013.9
20260905150010 31 0.0 0.0 0.00 0.00 0.00 73 1014.0
20260905144548 30 0.0 0.0 0.00 0.00 0.00 74 1014.0
20260905143046 30 0.0 0.0 0.00 0.00 0.00 78 1014.1
20260905141524 -17 0.0 0.0 0.00 0.00 0.00 1014.2
20260905140018 -17 0.0 0.0 0.00 0.00 0.00 1014.3
20260905134621 -17 0.0 0.0 0.00 0.00 0.00 1014.3
20260905133056 -17 0.0 0.0 0.00 0.00 0.00 1014.4
20260905131549 -17 0.0 0.0 0.00 0.00 0.00 1014.5
20260905130031 24 0.0 0.0 0.00 0.00 0.00 95 1014.4
20260905124537 23 0.0 0.0 0.00 0.00 0.00 95 1014.4
20260905123009 23 0.0 0.0 0.00 0.00 0.00 95 1014.4
20260905121508 22 0.0 0.0 0.00 0.00 0.00 95 1014.2
20260905120106 22 0.0 0.0 0.00 0.00 0.00 95 1014.1
20260905114550 22 0.0 0.0 0.00 0.00 0.00 95 1014.2